Total_Precipitation_Accumulation
0.00 0.00 0.00 0.00 0.00 0.00 0.00 0.00 0.00 0.00 0.00 0.00 0.00 0.00 0.00 0.01 0.06 0.16 0.20 0.26 0.25 0.17 0.19 0.24 0.34 0.39 0.15 0.09 0.10 0.10 0.07 0.05 0.04 0.03 0.02 0.01 0.03 0.02 0.00 0.01 0.08 0.09 0.03
0.00 0.00 0.00 0.00 0.00 0.00 0.00 0.00 0.00 0.00 0.00 0.00 0.00 0.00 0.00 0.00 0.04 0.19 0.33 0.33 0.42 0.49 0.42 0.39 0.40 0.52 0.65 0.16 0.11 0.13 0.09 0.06 0.04 0.03 0.02 0.00 0.01 0.01 0.00 0.02 0.06 0.06 0.02
0.00 0.00 0.00 0.00 0.00 0.00 0.00 0.00 0.00 0.00 0.00 0.00 0.00 0.00 0.00 0.00 0.00 0.02 0.25 0.53 0.77 0.83 0.66 0.59 0.48 0.62 0.70 0.60 0.18 0.12 0.09 0.06 0.05 0.05 0.03 0.01 0.01 0.01 0.00 0.01 0.05 0.03 0.01
0.00 0.00 0.00 0.00 0.00 0.00 0.00 0.00 0.00 0.00 0.00 0.00 0.00 0.00 0.00 0.00 0.00 0.00 0.04 0.15 0.31 0.84 1.41 1.59 1.50 1.22 1.01 1.08 0.64 0.20 0.11 0.08 0.05 0.04 0.04 0.01 0.01 0.01 0.00 0.01 0.04 0.02 0.01
0.00 0.00 0.00 0.00 0.00 0.00 0.00 0.00 0.00 0.00 0.00 0.00 0.00 0.00 0.00 0.00 0.00 0.00 0.01 0.05 0.15 0.42 0.72 0.97 1.13 1.21 1.24 0.90 0.76 0.84 0.36 0.12 0.06 0.04 0.03 0.02 0.01 0.02 0.01 0.02 0.03 0.01 0.01
0.00 0.00 0.00 0.00 0.00 0.00 0.00 0.00 0.00 0.00 0.00 0.00 0.00 0.00 0.00 0.00 0.00 0.00 0.00 0.01 0.04 0.18 0.32 0.33 0.41 0.56 0.63 0.62 0.45 0.52 2.02 1.52 0.29 0.07 0.06 0.03 0.02 0.02 0.02 0.02 0.04 0.02 0.01
0.00 0.00 0.00 0.00 0.00 0.00 0.00 0.00 0.00 0.00 0.00 0.00 0.00 0.00 0.00 0.00 0.00 0.00 0.00 0.00 0.02 0.12 0.22 0.17 0.13 0.16 0.29 0.30 0.25 0.14 0.51 2.81 3.26 1.19 0.16 0.05 0.03 0.02 0.01 0.01 0.04 0.02 0.02
0.00 0.00 0.00 0.00 0.00 0.00 0.00 0.00 0.00 0.00 0.00 0.00 0.00 0.00 0.00 0.00 0.00 0.00 0.00 0.01 0.01 0.08 0.13 0.22 0.19 0.10 0.08 0.10 0.13 0.16 0.13 0.52 2.14 2.39 1.38 0.40 0.10 0.04 0.02 0.01 0.04 0.02 0.02
0.00 0.00 0.00 0.00 0.00 0.00 0.00 0.00 0.00 0.00 0.00 0.00 0.01 0.01 0.01 0.01 0.00 0.00 0.00 0.02 0.02 0.03 0.13 0.28 0.30 0.29 0.13 0.08 0.06 0.09 0.19 0.30 0.57 1.47 1.48 0.99 0.54 0.20 0.05 0.01 0.03 0.03 0.02
0.00 0.00 0.00 0.00 0.00 0.00 0.00 0.00 0.00 0.00 0.00 0.00 0.00 0.00 0.01 0.01 0.01 0.00 0.00 0.01 0.01 0.02 0.03 0.13 0.37 0.39 0.32 0.18 0.11 0.06 0.13 0.30 0.38 0.67 1.29 1.16 0.86 0.50 0.23 0.06 0.02 0.04 0.02
0.00 0.00 0.00 0.00 0.00 0.00 0.00 0.00 0.00 0.00 0.00 0.00 0.00 0.00 0.00 0.00 0.00 0.01 0.01 0.01 0.00 0.00 0.00 0.01 0.07 0.19 0.21 0.19 0.18 0.07 0.10 0.15 0.36 0.46 0.73 1.21 0.96 0.66 0.39 0.17 0.03 0.04 0.03
0.00 0.00 0.00 0.00 0.00 0.00 0.00 0.00 0.00 0.00 0.00 0.00 0.00 0.00 0.00 0.01 0.00 0.01 0.02 0.01 0.00 0.00 0.00 0.00 0.00 0.02 0.10 0.20 0.13 0.12 0.07 0.07 0.14 0.47 0.63 0.77 1.24 0.92 0.52 0.32 0.14 0.07 0.05
0.00 0.00 0.00 0.00 0.00 0.00 0.00 0.00 0.00 0.00 0.00 0.00 0.00 0.00 0.00 0.00 0.00 0.01 0.01 0.01 0.01 0.00 0.00 0.00 0.00 0.01 0.03 0.04 0.08 0.10 0.06 0.06 0.08 0.16 0.58 0.92 0.77 1.36 0.93 0.47 0.25 0.14 0.12
0.00 0.00 0.00 0.00 0.00 0.00 0.00 0.00 0.00 0.00 0.00 0.00 0.00 0.00 0.00 0.00 0.00 0.00 0.01 0.02 0.01 0.00 0.00 0.00 0.00 0.02 0.03 0.09 0.10 0.06 0.05 0.06 0.07 0.08 0.19 0.71 1.73 1.24 1.26 1.03 0.53 0.31 0.25
0.00 0.00 0.00 0.00 0.00 0.00 0.00 0.00 0.00 0.00 0.00 0.00 0.00 0.00 0.00 0.00 0.00 0.00 0.01 0.02 0.03 0.01 0.01 0.00 0.01 0.01 0.05 0.06 0.08 0.02 0.03 0.11 0.12 0.07 0.07 0.10 0.61 1.17 1.51 2.05 1.69 1.07 0.78
0.00 0.00 0.00 0.00 0.00 0.00 0.00 0.00 0.00 0.00 0.00 0.00 0.00 0.00 0.00 0.00 0.00 0.00 0.00 0.00 0.01 0.02 0.02 0.01 0.00 0.01 0.01 0.01 0.08 0.04 0.01 0.05 0.07 0.08 0.05 0.05 0.13 0.17 0.22 0.61 1.29 1.25 1.14
0.00 0.00 0.00 0.00 0.00 0.00 0.00 0.00 0.00 0.00 0.00 0.00 0.00 0.00 0.00 0.00 0.00 0.00 0.00 0.00 0.00 0.01 0.02 0.01 0.01 0.01 0.01 0.01 0.02 0.03 0.00 0.00 0.02 0.03 0.02 0.01 0.03 0.06 0.04 0.04 0.18 0.40 0.83
0.00 0.00 0.00 0.00 0.00 0.00 0.00 0.00 0.00 0.00 0.00 0.00 0.00 0.00 0.00 0.00 0.00 0.00 0.00 0.00 0.00 0.00 0.01 0.01 0.01 0.06 0.04 0.07 0.03 0.03 0.02 0.00 0.00 0.00 0.02 0.01 0.01 0.01 0.01 0.01 0.00 0.03 0.13
0.00 0.00 0.00 0.00 0.00 0.00 0.00 0.00 0.00 0.00 0.00 0.00 0.00 0.00 0.00 0.00 0.00 0.00 0.00 0.00 0.00 0.00 0.00 0.01 0.01 0.04 0.11 0.12 0.15 0.07 0.03 0.01 0.00 0.01 0.01 0.01 0.00 0.00 0.00 0.00 0.00 0.01 0.03
0.00 0.00 0.00 0.00 0.00 0.00 0.00 0.00 0.00 0.00 0.00 0.00 0.00 0.00 0.00 0.00 0.00 0.00 0.00 0.00 0.00 0.00 0.00 0.00 0.00 0.01 0.02 0.09 0.12 0.14 0.08 0.02 0.00 0.00 0.00 0.01 0.01 0.01 0.01 0.00 0.01 0.04 0.12
0.00 0.00 0.00 0.00 0.00 0.00 0.00 0.00 0.00 0.01 0.02 0.02 0.01 0.00 0.00 0.00 0.01 0.01 0.00 0.00 0.00 0.00 0.00 0.00 0.00 0.01 0.01 0.02 0.07 0.09 0.16 0.08 0.01 0.00 0.00 0.00 0.00 0.00 0.00 0.01 0.02 0.11 0.23
0.00 0.00 0.00 0.00 0.00 0.00 0.00 0.01 0.02 0.04 0.03 0.02 0.02 0.01 0.00 0.00 0.01 0.01 0.01 0.01 0.01 0.01 0.00 0.00 0.00 0.01 0.01 0.02 0.04 0.07 0.17 0.16 0.04 0.01 0.00 0.00 0.00 0.00 0.00 0.01 0.05 0.10 0.24
0.00 0.00 0.00 0.00 0.00 0.00 0.00 0.01 0.03 0.07 0.06 0.03 0.03 0.03 0.02 0.01 0.01 0.01 0.01 0.01 0.01 0.01 0.02 0.01 0.00 0.00 0.00 0.01 0.04 0.05 0.07 0.15 0.14 0.03 0.00 0.00 0.00 0.01 0.02 0.03 0.06 0.13 0.22
0.00 0.00 0.00 0.00 0.00 0.00 0.00 0.01 0.03 0.07 0.03 0.01 0.00 0.00 0.01 0.01 0.01 0.01 0.01 0.00 0.00 0.00 0.00 0.01 0.01 0.00 0.00 0.02 0.03 0.05 0.08 0.13 0.17 0.12 0.01 0.00 0.01 0.02 0.03 0.02 0.08 0.12 0.21
0.00 0.00 0.00 0.00 0.00 0.00 0.00 0.01 0.05 0.07 0.02 0.00 0.00 0.00 0.01 0.01 0.01 0.02 0.03 0.02 0.01 0.00 0.00 0.00 0.00 0.00 0.00 0.05 0.09 0.06 0.04 0.09 0.12 0.09 0.03 0.02 0.01 0.01 0.06 0.01 0.04 0.10 0.15
0.00 0.00 0.00 0.00 0.00 0.00 0.00 0.02 0.06 0.09 0.03 0.01 0.00 0.00 0.01 0.02 0.03 0.03 0.03 0.02 0.02 0.00 0.00 0.00 0.00 0.00 0.00 0.02 0.10 0.05 0.03 0.04 0.06 0.06 0.01 0.02 0.04 0.01 0.06 0.07 0.02 0.03 0.04